Location: Worth Mountain WMA
(34.9569°N, 81.4819°W)
Time: 00:47:18
(UTC-04:00)

SPOT 1/Viking Rocket - Pass Details

Date: 18 August 2017
Orbit: 777 x 795 km, 98.6° (Epoch: 23 September)

Event Time Altitude Azimuth Distance (km) Brightness Sun altitude
Exits shadow 23:02:51 54° 349° (N) 965 4.1 -31.0°
Drops below altitude 10° 23:06:51 10° 348° (NNW) 2,369 6.7 -31.5°
Sets 23:09:11 0° 348° (NNW) 3,302 7.6 -31.9°
